Location: *
(33.3200°N, 8.3381°W)
Time: 13:51:03
(UTC+00:00)

NOSS 3-4 (A) - Visible Passes

Search period start: 06 August 2020 00:00
Search period end: 16 August 2020 00:00
Orbit: 892 x 1320 km, 63.4° (Epoch: 12 July)

Date Brightness Start Highest point End Pass type
(mag) Time Alt. Az. Time Alt. Az. Time Alt. Az.
09 Aug 6.0 05:07:51 10° SE 05:10:35 13° ESE 05:13:20 10° ENE visible
11 Aug 4.8 05:25:58 10° S 05:31:19 37° ESE 05:36:47 10° NE visible
12 Aug 5.6 04:42:41 10° SSE 04:46:50 20° ESE 04:51:05 10° ENE visible
14 Aug 4.1 05:01:59 10° S 05:07:41 53° ESE 05:13:33 10° NE visible
15 Aug 5.0 04:18:10 10° S 04:23:09 29° ESE 04:28:15 10° NE visible
